Notice: Use of undefined constant NAME - assumed 'NAME' in /home/bismarckweather/public_html/wxwuhistory.php on line 72

Notice: Use of undefined constant NAME - assumed 'NAME' in /home/bismarckweather/public_html/wxwuhistory.php on line 72
^^
Station Historical Data
Daily Summary for August 10, 2018 Units:  Metric    English   Both
« Previous Day
Next Day »
Daily Weekly Monthly Yearly Custom
  High: Low: Average:
Temperature: 35.8 °C 17.7 °C 26.8 °C
Dew Point: 19 °C 13.7 °C 15.8 °C
Humidity: 80% 27% 54%
Wind Speed: 19.3km/h 0km/h 10.3km/h
Wind Gust: 24.1km/h - -
Wind- - East
Pressure: 1012.4 hPa 1009.7 hPa -
Precipitation: 0 mm    
Historical Graphs
 
 
Tabular Data for August 10, 2018
Time Temperature Dew Point Pressure Wind Wind Speed Wind Gust Humidity Rainfall Rate (Hourly) solar Conditions
00:04 22.6 °C 15.2 °C 1012.1 hPa ESE 8 km/h 11.3 km/h 63% 0 mm 0.00 W/m2
00:09 22.6 °C 15.2 °C 1012.1 hPa East 11.3 km/h 11.3 km/h 63% 0 mm 0.00 W/m2
00:14 22.6 °C 15.2 °C 1012.1 hPa East 11.3 km/h 12.9 km/h 63% 0 mm 0.00 W/m2
00:19 22.5 °C 15.1 °C 1012.1 hPa East 8 km/h 12.9 km/h 63% 0 mm 0.00 W/m2
00:24 22.4 °C 15.1 °C 1012.1 hPa ENE 11.3 km/h 14.5 km/h 63% 0 mm 0.00 W/m2
00:29 22.7 °C 15 °C 1012.1 hPa East 11.3 km/h 14.5 km/h 62% 0 mm 0.00 W/m2
00:34 23 °C 15.1 °C 1012.1 hPa East 9.7 km/h 14.5 km/h 61% 0 mm 0.00 W/m2
00:39 23.1 °C 15.2 °C 1012.1 hPa East 9.7 km/h 14.5 km/h 61% 0 mm 0.00 W/m2
00:44 23.1 °C 15.1 °C 1012.1 hPa East 12.9 km/h 14.5 km/h 61% 0 mm 0.00 W/m2
00:49 23.1 °C 15.1 °C 1012.1 hPa ENE 14.5 km/h 16.1 km/h 61% 0 mm 0.00 W/m2
00:54 23.1 °C 15.2 °C 1012.1 hPa East 11.3 km/h 16.1 km/h 61% 0 mm 0.00 W/m2
00:59 23.2 °C 14.9 °C 1012.1 hPa East 11.3 km/h 16.1 km/h 60% 0 mm 0.00 W/m2
01:04 23.2 °C 15 °C 1012.1 hPa East 12.9 km/h 16.1 km/h 60% 0 mm 0.00 W/m2
01:09 23.3 °C 15.1 °C 1012.1 hPa East 12.9 km/h 16.1 km/h 60% 0 mm 0.00 W/m2
01:14 23.3 °C 15.1 °C 1012.4 hPa East 12.9 km/h 17.7 km/h 60% 0 mm 0.00 W/m2
01:19 23.1 °C 15.1 °C 1012.4 hPa East 9.7 km/h 17.7 km/h 61% 0 mm 0.00 W/m2
01:24 22.7 °C 15.1 °C 1012.4 hPa East 11.3 km/h 16.1 km/h 62% 0 mm 0.00 W/m2
01:29 22.4 °C 15.1 °C 1012.4 hPa East 12.9 km/h 14.5 km/h 63% 0 mm 0.00 W/m2
01:34 22.3 °C 14.9 °C 1012.4 hPa East 12.9 km/h 14.5 km/h 63% 0 mm 0.00 W/m2
01:39 22.2 °C 15.1 °C 1012.1 hPa East 12.9 km/h 14.5 km/h 64% 0 mm 0.00 W/m2
01:44 22.2 °C 14.8 °C 1012.1 hPa East 16.1 km/h 16.1 km/h 63% 0 mm 0.00 W/m2
01:49 22.4 °C 14.8 °C 1012.1 hPa East 11.3 km/h 16.1 km/h 62% 0 mm 0.00 W/m2
01:54 22.6 °C 14.7 °C 1012.1 hPa East 12.9 km/h 16.1 km/h 61% 0 mm 0.00 W/m2
01:59 22.6 °C 14.7 °C 1012.1 hPa East 12.9 km/h 16.1 km/h 61% 0 mm 0.00 W/m2
02:04 22.5 °C 14.6 °C 1012.1 hPa East 11.3 km/h 14.5 km/h 61% 0 mm 0.00 W/m2
02:09 22.4 °C 14.8 °C 1012.1 hPa East 12.9 km/h 14.5 km/h 62% 0 mm 0.00 W/m2
02:14 22.4 °C 14.7 °C 1012.1 hPa East 11.3 km/h 14.5 km/h 62% 0 mm 0.00 W/m2
02:19 22.3 °C 14.4 °C 1012.1 hPa East 11.3 km/h 14.5 km/h 61% 0 mm 0.00 W/m2
02:24 22.5 °C 14.6 °C 1012.1 hPa East 11.3 km/h 14.5 km/h 61% 0 mm 0.00 W/m2
02:29 22.5 °C 14.6 °C 1012.1 hPa ENE 8 km/h 14.5 km/h 61% 0 mm 0.00 W/m2
02:34 22.3 °C 14.4 °C 1012.1 hPa East 11.3 km/h 12.9 km/h 61% 0 mm 0.00 W/m2
02:39 22.3 °C 14.4 °C 1012.1 hPa ENE 11.3 km/h 12.9 km/h 61% 0 mm 0.00 W/m2
02:44 22.4 °C 14.5 °C 1012.1 hPa East 9.7 km/h 12.9 km/h 61% 0 mm 0.00 W/m2
02:49 22.5 °C 14.3 °C 1012.1 hPa East 12.9 km/h 14.5 km/h 60% 0 mm 0.00 W/m2
02:54 22.6 °C 14.1 °C 1012.1 hPa ENE 8 km/h 14.5 km/h 59% 0 mm 0.00 W/m2
02:59 22.7 °C 14.1 °C 1012.1 hPa East 12.9 km/h 12.9 km/h 58% 0 mm 0.00 W/m2
03:04 22.8 °C 13.9 °C 1012.1 hPa East 12.9 km/h 12.9 km/h 57% 0 mm 0.00 W/m2
03:09 22.9 °C 13.9 °C 1012.1 hPa East 11.3 km/h 12.9 km/h 57% 0 mm 0.00 W/m2
03:14 22.9 °C 13.9 °C 1012.1 hPa East 11.3 km/h 14.5 km/h 57% 0 mm 0.00 W/m2
03:19 22.7 °C 14.1 °C 1012.1 hPa ESE 6.4 km/h 14.5 km/h 58% 0 mm 0.00 W/m2
03:24 22.2 °C 14.1 °C 1012.1 hPa ESE 8 km/h 12.9 km/h 60% 0 mm 0.00 W/m2
03:29 21.8 °C 14 °C 1012.1 hPa ESE 11.3 km/h 12.9 km/h 61% 0 mm 0.00 W/m2
03:34 21.5 °C 14.2 °C 1012.1 hPa ESE 8 km/h 12.9 km/h 63% 0 mm 0.00 W/m2
03:39 21.3 °C 13.9 °C 1011.7 hPa East 11.3 km/h 11.3 km/h 63% 0 mm 0.00 W/m2
03:44 21.2 °C 14.1 °C 1011.7 hPa East 9.7 km/h 12.9 km/h 64% 0 mm 0.00 W/m2
03:49 21.1 °C 14.1 °C 1011.7 hPa East 11.3 km/h 12.9 km/h 64% 0 mm 0.00 W/m2
03:54 20.9 °C 14.1 °C 1011.7 hPa East 8 km/h 12.9 km/h 65% 0 mm 0.00 W/m2
03:59 20.9 °C 14.1 °C 1011.7 hPa ENE 12.9 km/h 12.9 km/h 65% 0 mm 0.00 W/m2
04:04 21 °C 13.9 °C 1011.7 hPa East 12.9 km/h 14.5 km/h 64% 0 mm 0.00 W/m2
04:09 21.2 °C 14.1 °C 1011.7 hPa East 11.3 km/h 14.5 km/h 64% 0 mm 0.00 W/m2
04:14 21.3 °C 13.9 °C 1011.7 hPa ENE 11.3 km/h 14.5 km/h 63% 0 mm 0.00 W/m2
04:19 21.2 °C 13.9 °C 1011.7 hPa East 12.9 km/h 14.5 km/h 63% 0 mm 0.00 W/m2
04:24 21.2 °C 13.9 °C 1011.7 hPa East 12.9 km/h 14.5 km/h 63% 0 mm 0.00 W/m2
04:29 21.1 °C 14.1 °C 1011.7 hPa East 9.7 km/h 16.1 km/h 64% 0 mm 0.00 W/m2
04:34 21.1 °C 14.1 °C 1011.4 hPa East 14.5 km/h 16.1 km/h 64% 0 mm 0.00 W/m2
04:39 21.1 °C 14.1 °C 1011.4 hPa East 12.9 km/h 16.1 km/h 64% 0 mm 0.00 W/m2
04:44 21.2 °C 14.1 °C 1011.4 hPa East 12.9 km/h 16.1 km/h 64% 0 mm 0.00 W/m2
04:49 21.1 °C 14.1 °C 1011.4 hPa East 11.3 km/h 17.7 km/h 64% 0 mm 0.00 W/m2
04:54 20.8 °C 14 °C 1011.4 hPa ENE 12.9 km/h 17.7 km/h 65% 0 mm 0.00 W/m2
04:59 20.4 °C 14.1 °C 1011.4 hPa East 16.1 km/h 17.7 km/h 67% 0 mm 0.00 W/m2
05:04 20.1 °C 13.9 °C 1011.4 hPa East 12.9 km/h 17.7 km/h 68% 0 mm 0.00 W/m2
05:09 19.8 °C 14 °C 1011.4 hPa East 14.5 km/h 17.7 km/h 69% 0 mm 0.00 W/m2
05:14 19.8 °C 14 °C 1011.4 hPa East 11.3 km/h 17.7 km/h 69% 0 mm 0.00 W/m2
05:19 19.8 °C 14 °C 1011.1 hPa East 12.9 km/h 17.7 km/h 69% 0 mm 0.00 W/m2
05:24 19.7 °C 14.1 °C 1011.1 hPa East 12.9 km/h 17.7 km/h 70% 0 mm 0.00 W/m2
05:29 19.6 °C 14 °C 1011.1 hPa East 11.3 km/h 17.7 km/h 70% 0 mm 0.00 W/m2
05:34 19.6 °C 14.2 °C 1011.1 hPa ESE 14.5 km/h 17.7 km/h 71% 0 mm 0.00 W/m2
05:39 19.6 °C 14.2 °C 1011.1 hPa ESE 12.9 km/h 17.7 km/h 71% 0 mm 0.00 W/m2
05:44 19.4 °C 14.1 °C 1011.1 hPa East 9.7 km/h 16.1 km/h 71% 0 mm 0.00 W/m2
05:49 19.3 °C 14.2 °C 1011.1 hPa East 12.9 km/h 16.1 km/h 72% 0 mm 0.00 W/m2
05:54 19.2 °C 14 °C 1011.1 hPa East 11.3 km/h 14.5 km/h 72% 0 mm 0.00 W/m2
05:59 18.9 °C 14 °C 1011.1 hPa East 14.5 km/h 14.5 km/h 73% 0 mm 0.00 W/m2
06:04 18.7 °C 13.8 °C 1011.1 hPa East 12.9 km/h 14.5 km/h 73% 0 mm 0.00 W/m2
06:09 18.5 °C 13.8 °C 1011.1 hPa East 11.3 km/h 14.5 km/h 74% 0 mm 0.00 W/m2
06:14 18.3 °C 13.8 °C 1011.1 hPa East 11.3 km/h 17.7 km/h 75% 0 mm 0.00 W/m2
06:19 18.2 °C 13.9 °C 1011.1 hPa ENE 11.3 km/h 17.7 km/h 76% 0 mm 0.00 W/m2
06:24 18.3 °C 13.8 °C 1011.1 hPa East 14.5 km/h 17.7 km/h 75% 0 mm 0.00 W/m2
06:29 18.3 °C 13.8 °C 1011.1 hPa East 14.5 km/h 17.7 km/h 75% 0 mm 0.00 W/m2
06:34 18.2 °C 13.9 °C 1011.1 hPa ENE 12.9 km/h 17.7 km/h 76% 0 mm 0.00 W/m2
06:39 18.1 °C 13.8 °C 1011.1 hPa East 11.3 km/h 17.7 km/h 76% 0 mm 7.00 W/m2
06:44 17.9 °C 13.8 °C 1011.1 hPa East 12.9 km/h 17.7 km/h 77% 0 mm 11.00 W/m2
06:49 17.8 °C 13.7 °C 1011.1 hPa East 12.9 km/h 17.7 km/h 77% 0 mm 16.00 W/m2
06:54 17.7 °C 13.8 °C 1011.1 hPa East 9.7 km/h 16.1 km/h 78% 0 mm 19.00 W/m2
06:59 17.7 °C 14 °C 1011.1 hPa East 11.3 km/h 16.1 km/h 79% 0 mm 25.00 W/m2
07:04 17.8 °C 14.1 °C 1011.1 hPa East 12.9 km/h 16.1 km/h 79% 0 mm 28.00 W/m2
07:09 17.8 °C 13.9 °C 1011.1 hPa ENE 12.9 km/h 17.7 km/h 78% 0 mm 33.00 W/m2
07:14 18 °C 14.1 °C 1011.1 hPa East 12.9 km/h 17.7 km/h 78% 0 mm 39.00 W/m2
07:19 18.1 °C 14.2 °C 1011.1 hPa ENE 11.3 km/h 16.1 km/h 78% 0 mm 44.00 W/m2
07:24 18.1 °C 14.2 °C 1011.1 hPa East 14.5 km/h 16.1 km/h 78% 0 mm 49.00 W/m2
07:29 18.1 °C 14.4 °C 1011.1 hPa East 12.9 km/h 16.1 km/h 79% 0 mm 53.00 W/m2
07:34 18.1 °C 14.3 °C 1011.1 hPa East 12.9 km/h 16.1 km/h 79% 0 mm 58.00 W/m2
07:39 18.1 °C 14.6 °C 1011.1 hPa East 11.3 km/h 16.1 km/h 80% 0 mm 62.00 W/m2
07:44 18.2 °C 14.7 °C 1011.1 hPa East 12.9 km/h 16.1 km/h 80% 0 mm 65.00 W/m2
07:49 18.3 °C 14.8 °C 1011.1 hPa ESE 11.3 km/h 14.5 km/h 80% 0 mm 70.00 W/m2
07:54 18.4 °C 14.7 °C 1011.1 hPa East 12.9 km/h 14.5 km/h 79% 0 mm 74.00 W/m2
07:59 18.6 °C 14.9 °C 1011.1 hPa ESE 8 km/h 14.5 km/h 79% 0 mm 79.00 W/m2
08:04 18.8 °C 15.1 °C 1011.1 hPa ESE 11.3 km/h 14.5 km/h 79% 0 mm 127.00 W/m2
08:09 18.9 °C 15 °C 1011.1 hPa ESE 11.3 km/h 14.5 km/h 78% 0 mm 141.00 W/m2
08:14 19.2 °C 15.3 °C 1011.4 hPa East 8 km/h 14.5 km/h 78% 0 mm 146.00 W/m2
08:19 19.4 °C 15.3 °C 1011.4 hPa ESE 8 km/h 12.9 km/h 77% 0 mm 149.00 W/m2
08:24 19.7 °C 15.6 °C 1011.4 hPa ESE 8 km/h 12.9 km/h 77% 0 mm 162.00 W/m2
08:29 20 °C 15.7 °C 1011.4 hPa ESE 3.2 km/h 11.3 km/h 76% 0 mm 183.00 W/m2
08:34 20.3 °C 15.8 °C 1011.4 hPa ESE 1.6 km/h 9.7 km/h 75% 0 mm 195.00 W/m2
08:39 20.6 °C 15.8 °C 1011.4 hPa ESE 6.4 km/h 6.4 km/h 74% 0 mm 211.00 W/m2
08:44 20.8 °C 15.8 °C 1011.4 hPa SE 4.8 km/h 6.4 km/h 73% 0 mm 225.00 W/m2
08:49 21.1 °C 16 °C 1011.4 hPa SE 3.2 km/h 8 km/h 73% 0 mm 241.00 W/m2
08:54 21.3 °C 16 °C 1011.4 hPa SE 9.7 km/h 9.7 km/h 72% 0 mm 255.00 W/m2
08:59 21.4 °C 16.2 °C 1011.1 hPa SE 8 km/h 11.3 km/h 72% 0 mm 278.00 W/m2
09:04 21.7 °C 16.2 °C 1011.4 hPa SSE 4.8 km/h 11.3 km/h 71% 0 mm 292.00 W/m2
09:09 21.8 °C 16.3 °C 1011.4 hPa ESE 6.4 km/h 9.7 km/h 71% 0 mm 301.00 W/m2
09:14 22.1 °C 16.4 °C 1011.4 hPa ESE 3.2 km/h 6.4 km/h 70% 0 mm 315.00 W/m2
09:19 22.4 °C 16.5 °C 1011.4 hPa ESE 1.6 km/h 6.4 km/h 69% 0 mm 329.00 W/m2
09:24 22.7 °C 16.5 °C 1011.4 hPa ESE 3.2 km/h 8 km/h 68% 0 mm 341.00 W/m2
09:29 23 °C 16.6 °C 1011.4 hPa SE 1.6 km/h 8 km/h 67% 0 mm 352.00 W/m2
09:34 23.2 °C 16.7 °C 1011.4 hPa East 4.8 km/h 6.4 km/h 67% 0 mm 366.00 W/m2
09:39 23.3 °C 16.6 °C 1011.4 hPa ESE 1.6 km/h 6.4 km/h 66% 0 mm 381.00 W/m2
09:44 23.5 °C 16.6 °C 1011.4 hPa Calm   6.4 km/h 65% 0 mm 394.00 W/m2
09:49 23.8 °C 16.6 °C 1011.4 hPa SE 3.2 km/h 4.8 km/h 64% 0 mm 408.00 W/m2
09:54 24.1 °C 17.1 °C 1011.4 hPa Calm   4.8 km/h 65% 0 mm 420.00 W/m2
09:59 24.2 °C 16.5 °C 1011.7 hPa SE 3.2 km/h 3.2 km/h 62% 0 mm 429.00 W/m2
10:04 24.2 °C 16.7 °C 1011.7 hPa NNW 1.6 km/h 4.8 km/h 63% 0 mm 443.00 W/m2
10:09 24.3 °C 16.6 °C 1011.7 hPa NNW 3.2 km/h 4.8 km/h 62% 0 mm 459.00 W/m2
10:14 24.3 °C 16.6 °C 1011.4 hPa North 1.6 km/h 6.4 km/h 62% 0 mm 475.00 W/m2
10:19 24.4 °C 16.9 °C 1011.4 hPa NNE 1.6 km/h 6.4 km/h 63% 0 mm 487.00 W/m2
10:24 24.8 °C 16.6 °C 1011.4 hPa North 6.4 km/h 6.4 km/h 60% 0 mm 503.00 W/m2
10:29 25.3 °C 17.3 °C 1011.4 hPa ENE 1.6 km/h 6.4 km/h 61% 0 mm 517.00 W/m2
10:34 25.9 °C 17.3 °C 1011.4 hPa NE 4.8 km/h 6.4 km/h 59% 0 mm 524.00 W/m2
10:39 26.6 °C 17.3 °C 1011.4 hPa NE 1.6 km/h 8 km/h 57% 0 mm 534.00 W/m2
10:44 27.1 °C 17.6 °C 1011.4 hPa NE 1.6 km/h 8 km/h 56% 0 mm 552.00 W/m2
10:49 27.5 °C 17.4 °C 1011.4 hPa ENE 4.8 km/h 8 km/h 54% 0 mm 559.00 W/m2
10:54 27.7 °C 18.2 °C 1011.4 hPa NNE 8 km/h 11.3 km/h 56% 0 mm 573.00 W/m2
10:59 28 °C 17.8 °C 1011.1 hPa ENE 3.2 km/h 11.3 km/h 54% 0 mm 571.00 W/m2
11:04 28.2 °C 18.3 °C 1011.1 hPa NNE 8 km/h 11.3 km/h 55% 0 mm 571.00 W/m2
11:09 28.6 °C 18.1 °C 1011.1 hPa ENE 6.4 km/h 12.9 km/h 53% 0 mm 552.00 W/m2
11:14 28.8 °C 17.6 °C 1011.4 hPa ESE 6.4 km/h 12.9 km/h 51% 0 mm 538.00 W/m2
11:19 28.8 °C 17.3 °C 1011.1 hPa East 8 km/h 12.9 km/h 50% 0 mm 531.00 W/m2
11:24 28.7 °C 17.6 °C 1011.1 hPa NE 9.7 km/h 12.9 km/h 51% 0 mm 536.00 W/m2
11:29 29 °C 17.5 °C 1011.1 hPa ENE 6.4 km/h 12.9 km/h 50% 0 mm 552.00 W/m2
11:34 29.3 °C 17.8 °C 1011.1 hPa ENE 4.8 km/h 12.9 km/h 50% 0 mm 587.00 W/m2
11:39 29.6 °C 17.8 °C 1011.1 hPa East 1.6 km/h 11.3 km/h 49% 0 mm 626.00 W/m2
11:44 30.1 °C 17.9 °C 1011.1 hPa NE 1.6 km/h 8 km/h 48% 0 mm 656.00 W/m2
11:49 30.6 °C 17.7 °C 1011.1 hPa SE 6.4 km/h 11.3 km/h 46% 0 mm 682.00 W/m2
11:54 30.9 °C 17.2 °C 1011.1 hPa East 11.3 km/h 14.5 km/h 44% 0 mm 694.00 W/m2
11:59 30.9 °C 17.9 °C 1011.1 hPa SE 6.4 km/h 14.5 km/h 46% 0 mm 698.00 W/m2
12:04 31.1 °C 17.4 °C 1011.1 hPa East 3.2 km/h 12.9 km/h 44% 0 mm 708.00 W/m2
12:09 31.1 °C 16.6 °C 1011.1 hPa NE 9.7 km/h 14.5 km/h 42% 0 mm 717.00 W/m2
12:14 31.2 °C 16.8 °C 1011.1 hPa East 11.3 km/h 17.7 km/h 42% 0 mm 721.00 W/m2
12:19 31.4 °C 16.2 °C 1011.1 hPa ESE 6.4 km/h 17.7 km/h 40% 0 mm 729.00 W/m2
12:24 31.6 °C 16.3 °C 1011.1 hPa East 8 km/h 16.1 km/h 40% 0 mm 737.00 W/m2
12:29 31.6 °C 16.4 °C 1011.1 hPa ENE 8 km/h 14.5 km/h 40% 0 mm 745.00 W/m2
12:34 31.7 °C 16.4 °C 1011.1 hPa ESE 4.8 km/h 12.9 km/h 40% 0 mm 747.00 W/m2
12:39 31.9 °C 16.6 °C 1011.1 hPa ENE 12.9 km/h 16.1 km/h 40% 0 mm 752.00 W/m2
12:44 32.1 °C 16.8 °C 1011.1 hPa East 11.3 km/h 16.1 km/h 40% 0 mm 758.00 W/m2
12:49 32.2 °C 16.9 °C 1011.1 hPa East 9.7 km/h 16.1 km/h 40% 0 mm 765.00 W/m2
12:54 32.4 °C 17.4 °C 1011.1 hPa SSE 9.7 km/h 14.5 km/h 41% 0 mm 772.00 W/m2
12:59 32.7 °C 16.9 °C 1011.1 hPa NE 3.2 km/h 14.5 km/h 39% 0 mm 775.00 W/m2
13:04 32.7 °C 16.9 °C 1011.1 hPa ESE 11.3 km/h 16.1 km/h 39% 0 mm 782.00 W/m2
13:09 32.7 °C 17.3 °C 1011.1 hPa ESE 16.1 km/h 22.5 km/h 40% 0 mm 782.00 W/m2
13:14 32.8 °C 17.1 °C 1011.1 hPa SE 9.7 km/h 22.5 km/h 39% 0 mm 793.00 W/m2
13:19 32.8 °C 16.7 °C 1011.1 hPa ENE 12.9 km/h 20.9 km/h 38% 0 mm 798.00 W/m2
13:24 33 °C 16.8 °C 1011.1 hPa SE 12.9 km/h 20.9 km/h 38% 0 mm 798.00 W/m2
13:29 33.2 °C 17.3 °C 1011.1 hPa East 9.7 km/h 16.1 km/h 39% 0 mm 800.00 W/m2
13:34 33.4 °C 17.2 °C 1011.1 hPa NE 11.3 km/h 12.9 km/h 38% 0 mm 798.00 W/m2
13:39 33.7 °C 16.9 °C 1011.1 hPa East 9.7 km/h 20.9 km/h 37% 0 mm 807.00 W/m2
13:44 33.5 °C 17.2 °C 1011.1 hPa East 11.3 km/h 20.9 km/h 38% 0 mm 807.00 W/m2
13:49 33.6 °C 16.9 °C 1011.1 hPa ENE 11.3 km/h 19.3 km/h 37% 0 mm 805.00 W/m2
13:54 33.8 °C 17.5 °C 1011.1 hPa SSE 11.3 km/h 16.1 km/h 38% 0 mm 802.00 W/m2
13:59 33.8 °C 17.6 °C 1010.7 hPa Calm   12.9 km/h 38% 0 mm 803.00 W/m2
14:04 34 °C 16.8 °C 1010.7 hPa East 11.3 km/h 14.5 km/h 36% 0 mm 805.00 W/m2
14:09 34.2 °C 16.9 °C 1010.7 hPa SE 1.6 km/h 14.5 km/h 36% 0 mm 803.00 W/m2
14:14 34.2 °C 17.4 °C 1010.7 hPa East 12.9 km/h 16.1 km/h 37% 0 mm 802.00 W/m2
14:19 34.3 °C 16.2 °C 1010.7 hPa SE 3.2 km/h 16.1 km/h 34% 0 mm 802.00 W/m2
14:24 34.3 °C 17.1 °C 1010.7 hPa East 12.9 km/h 17.7 km/h 36% 0 mm 800.00 W/m2
14:29 34.4 °C 17.2 °C 1010.7 hPa SSE 11.3 km/h 17.7 km/h 36% 0 mm 796.00 W/m2
14:34 34.6 °C 16.9 °C 1010.7 hPa East 4.8 km/h 17.7 km/h 35% 0 mm 798.00 W/m2
14:39 34.7 °C 16.6 °C 1010.4 hPa East 9.7 km/h 22.5 km/h 34% 0 mm 788.00 W/m2
14:44 34.7 °C 16.6 °C 1010.4 hPa ESE 11.3 km/h 22.5 km/h 34% 0 mm 789.00 W/m2
14:49 34.7 °C 16.1 °C 1010.4 hPa ESE 11.3 km/h 22.5 km/h 33% 0 mm 784.00 W/m2
14:54 34.7 °C 17 °C 1010.4 hPa NE 11.3 km/h 22.5 km/h 35% 0 mm 779.00 W/m2
14:59 34.8 °C 17.6 °C 1010.4 hPa SE 4.8 km/h 17.7 km/h 36% 0 mm 773.00 W/m2
15:04 34.9 °C 16.2 °C 1010.4 hPa ENE 16.1 km/h 20.9 km/h 33% 0 mm 765.00 W/m2
15:09 34.9 °C 16.3 °C 1010.4 hPa ESE 16.1 km/h 20.9 km/h 33% 0 mm 754.00 W/m2
15:14 34.9 °C 14.3 °C 1010.4 hPa NE 8 km/h 17.7 km/h 29% 0 mm 749.00 W/m2
15:19 35.2 °C 16.5 °C 1010.4 hPa East 8 km/h 17.7 km/h 33% 0 mm 737.00 W/m2
15:24 35.4 °C 16.7 °C 1010.4 hPa ENE 14.5 km/h 17.7 km/h 33% 0 mm 728.00 W/m2
15:29 35.2 °C 15.1 °C 1010.4 hPa East 8 km/h 17.7 km/h 30% 0 mm 722.00 W/m2
15:34 35.4 °C 15.2 °C 1010 hPa ENE 12.9 km/h 20.9 km/h 30% 0 mm 724.00 W/m2
15:39 35.4 °C 15.7 °C 1010 hPa East 11.3 km/h 20.9 km/h 31% 0 mm 714.00 W/m2
15:44 35.6 °C 15.4 °C 1010 hPa ENE 11.3 km/h 14.5 km/h 30% 0 mm 710.00 W/m2
15:49 35.7 °C 14.9 °C 1010 hPa NNE 6.4 km/h 17.7 km/h 29% 0 mm 714.00 W/m2
15:54 35.8 °C 15.6 °C 1010 hPa SE 8 km/h 17.7 km/h 30% 0 mm 684.00 W/m2
15:59 35.7 °C 15.9 °C 1010 hPa SE 11.3 km/h 17.7 km/h 31% 0 mm 675.00 W/m2
16:04 35.6 °C 15.4 °C 1010 hPa ESE 19.3 km/h 20.9 km/h 30% 0 mm 659.00 W/m2
16:09 35.4 °C 15.2 °C 1010 hPa East 4.8 km/h 20.9 km/h 30% 0 mm 654.00 W/m2
16:14 35.6 °C 14.8 °C 1010 hPa NE 8 km/h 20.9 km/h 29% 0 mm 635.00 W/m2
16:19 35.8 °C 15.6 °C 1010 hPa SE 6.4 km/h 20.9 km/h 30% 0 mm 626.00 W/m2
16:24 35.7 °C 14.9 °C 1010 hPa SE 12.9 km/h 16.1 km/h 29% 0 mm 626.00 W/m2
16:29 35.6 °C 14.8 °C 1010 hPa East 8 km/h 19.3 km/h 29% 0 mm 605.00 W/m2
16:34 35.6 °C 14.8 °C 1010 hPa NE 14.5 km/h 19.3 km/h 29% 0 mm 594.00 W/m2
16:39 35.7 °C 15.4 °C 1010 hPa SE 9.7 km/h 17.7 km/h 30% 0 mm 580.00 W/m2
16:44 35.6 °C 15.4 °C 1010 hPa ESE 4.8 km/h 16.1 km/h 30% 0 mm 582.00 W/m2
16:49 35.8 °C 15.5 °C 1010 hPa ESE 12.9 km/h 16.1 km/h 30% 0 mm 584.00 W/m2
16:54 35.7 °C 14.4 °C 1010 hPa East 16.1 km/h 17.7 km/h 28% 0 mm 552.00 W/m2
16:59 35.6 °C 14.8 °C 1010 hPa East 12.9 km/h 17.7 km/h 29% 0 mm 548.00 W/m2
17:04 35.7 °C 15.4 °C 1010 hPa ENE 1.6 km/h 17.7 km/h 30% 0 mm 538.00 W/m2
17:09 35.8 °C 15 °C 1010 hPa ENE 14.5 km/h 17.7 km/h 29% 0 mm 529.00 W/m2
17:14 35.8 °C 14.5 °C 1010 hPa ENE 17.7 km/h 20.9 km/h 28% 0 mm 527.00 W/m2
17:19 35.8 °C 13.9 °C 1010 hPa NE 8 km/h 20.9 km/h 27% 0 mm 522.00 W/m2
17:24 35.8 °C 14.5 °C 1010 hPa SE 4.8 km/h 17.7 km/h 28% 0 mm 508.00 W/m2
17:29 35.8 °C 15 °C 1010 hPa East 14.5 km/h 24.1 km/h 29% 0 mm 490.00 W/m2
17:34 35.6 °C 15.3 °C 1009.7 hPa East 12.9 km/h 24.1 km/h 30% 0 mm 478.00 W/m2
17:39 35.4 °C 15.7 °C 1009.7 hPa East 11.3 km/h 17.7 km/h 31% 0 mm 466.00 W/m2
17:44 35.4 °C 16.2 °C 1009.7 hPa East 11.3 km/h 17.7 km/h 32% 0 mm 452.00 W/m2
17:49 35.3 °C 16.1 °C 1009.7 hPa ESE 16.1 km/h 22.5 km/h 32% 0 mm 439.00 W/m2
17:54 35.1 °C 15.4 °C 1009.7 hPa ENE 14.5 km/h 22.5 km/h 31% 0 mm 418.00 W/m2
17:59 35.1 °C 15.9 °C 1009.7 hPa East 12.9 km/h 22.5 km/h 32% 0 mm 413.00 W/m2
18:04 35.1 °C 15.9 °C 1009.7 hPa ESE 16.1 km/h 24.1 km/h 32% 0 mm 390.00 W/m2
18:09 34.9 °C 15.8 °C 1009.7 hPa ESE 12.9 km/h 24.1 km/h 32% 0 mm 373.00 W/m2
18:14 34.8 °C 16.1 °C 1010 hPa East 9.7 km/h 22.5 km/h 33% 0 mm 359.00 W/m2
18:19 34.8 °C 16.6 °C 1010 hPa ESE 14.5 km/h 17.7 km/h 34% 0 mm 346.00 W/m2
18:24 34.7 °C 16.1 °C 1010 hPa ESE 16.1 km/h 17.7 km/h 33% 0 mm 327.00 W/m2
18:29 34.6 °C 16 °C 1010 hPa East 8 km/h 17.7 km/h 33% 0 mm 322.00 W/m2
18:34 34.6 °C 15.4 °C 1009.7 hPa East 12.9 km/h 17.7 km/h 32% 0 mm 309.00 W/m2
18:39 34.5 °C 15.4 °C 1009.7 hPa ESE 11.3 km/h 20.9 km/h 32% 0 mm 288.00 W/m2
18:44 34.4 °C 15.3 °C 1009.7 hPa ESE 12.9 km/h 20.9 km/h 32% 0 mm 274.00 W/m2
18:49 34.2 °C 14.6 °C 1009.7 hPa ESE 11.3 km/h 17.7 km/h 31% 0 mm 265.00 W/m2
18:54 34.1 °C 15.5 °C 1009.7 hPa East 14.5 km/h 17.7 km/h 33% 0 mm 250.00 W/m2
18:59 33.9 °C 15.3 °C 1010 hPa East 12.9 km/h 17.7 km/h 33% 0 mm 239.00 W/m2
19:04 33.8 °C 15.7 °C 1009.7 hPa East 9.7 km/h 17.7 km/h 34% 0 mm 223.00 W/m2
19:09 33.7 °C 15.2 °C 1010 hPa East 12.9 km/h 19.3 km/h 33% 0 mm 211.00 W/m2
19:14 33.5 °C 15.9 °C 1009.7 hPa East 12.9 km/h 19.3 km/h 35% 0 mm 199.00 W/m2
19:19 33.3 °C 16.2 °C 1010 hPa East 12.9 km/h 17.7 km/h 36% 0 mm 186.00 W/m2
19:24 33 °C 16.4 °C 1009.7 hPa ENE 14.5 km/h 22.5 km/h 37% 0 mm 174.00 W/m2
19:29 32.8 °C 16.6 °C 1009.7 hPa East 11.3 km/h 22.5 km/h 38% 0 mm 158.00 W/m2
19:34 32.6 °C 16.8 °C 1010 hPa ESE 6.4 km/h 22.5 km/h 39% 0 mm 142.00 W/m2
19:39 32.4 °C 17.1 °C 1009.7 hPa East 12.9 km/h 16.1 km/h 40% 0 mm 130.00 W/m2
19:44 32.2 °C 16.8 °C 1009.7 hPa ENE 12.9 km/h 17.7 km/h 40% 0 mm 114.00 W/m2
19:49 31.9 °C 16.6 °C 1009.7 hPa East 12.9 km/h 19.3 km/h 40% 0 mm 102.00 W/m2
19:54 31.7 °C 16.4 °C 1009.7 hPa ESE 8 km/h 19.3 km/h 40% 0 mm 88.00 W/m2
19:59 31.4 °C 16.6 °C 1009.7 hPa East 9.7 km/h 16.1 km/h 41% 0 mm 79.00 W/m2
20:04 31.1 °C 16.7 °C 1009.7 hPa East 11.3 km/h 17.7 km/h 42% 0 mm 67.00 W/m2
20:09 30.8 °C 16.8 °C 1009.7 hPa East 11.3 km/h 17.7 km/h 43% 0 mm 56.00 W/m2
20:14 30.6 °C 16.6 °C 1010 hPa ENE 8 km/h 14.5 km/h 43% 0 mm 49.00 W/m2
20:19 30.3 °C 16.7 °C 1009.7 hPa East 11.3 km/h 16.1 km/h 44% 0 mm 42.00 W/m2
20:24 30.1 °C 16.4 °C 1010 hPa East 11.3 km/h 17.7 km/h 44% 0 mm 35.00 W/m2
20:29 29.7 °C 16.5 °C 1010 hPa East 9.7 km/h 17.7 km/h 45% 0 mm 28.00 W/m2
20:34 29.4 °C 16.6 °C 1010 hPa East 11.3 km/h 16.1 km/h 46% 0 mm 25.00 W/m2
20:39 29.1 °C 16.6 °C 1010 hPa East 9.7 km/h 16.1 km/h 47% 0 mm 19.00 W/m2
20:44 28.8 °C 16.3 °C 1010.4 hPa East 11.3 km/h 16.1 km/h 47% 0 mm 16.00 W/m2
20:49 28.5 °C 16.4 °C 1010.4 hPa East 12.9 km/h 16.1 km/h 48% 0 mm 12.00 W/m2
20:54 28.2 °C 16.1 °C 1010.4 hPa ESE 8 km/h 16.1 km/h 48% 0 mm 9.00 W/m2
20:59 27.9 °C 16.2 °C 1010.4 hPa East 9.7 km/h 14.5 km/h 49% 0 mm 5.00 W/m2
21:04 27.7 °C 16.3 °C 1010.4 hPa ENE 11.3 km/h 14.5 km/h 50% 0 mm 0.00 W/m2
21:09 27.4 °C 16.1 °C 1010.4 hPa ENE 12.9 km/h 14.5 km/h 50% 0 mm 0.00 W/m2
21:14 27.2 °C 16.2 °C 1010.4 hPa East 11.3 km/h 14.5 km/h 51% 0 mm 0.00 W/m2
21:19 26.9 °C 16.3 °C 1010.4 hPa East 12.9 km/h 14.5 km/h 52% 0 mm 0.00 W/m2
21:24 26.8 °C 16.2 °C 1010.4 hPa East 11.3 km/h 16.1 km/h 52% 0 mm 0.00 W/m2
21:29 26.7 °C 16.3 °C 1010.7 hPa East 11.3 km/h 16.1 km/h 53% 0 mm 0.00 W/m2
21:34 26.6 °C 16.2 °C 1010.4 hPa ENE 6.4 km/h 17.7 km/h 53% 0 mm 0.00 W/m2
21:39 26.5 °C 16.2 °C 1010.7 hPa East 12.9 km/h 17.7 km/h 53% 0 mm 0.00 W/m2
21:44 26.3 °C 16.3 °C 1010.7 hPa East 11.3 km/h 17.7 km/h 54% 0 mm 0.00 W/m2
21:49 26.1 °C 16.4 °C 1010.7 hPa East 9.7 km/h 17.7 km/h 55% 0 mm 0.00 W/m2
21:54 25.9 °C 16.4 °C 1010.7 hPa ENE 14.5 km/h 17.7 km/h 56% 0 mm 0.00 W/m2
21:59 25.7 °C 16.2 °C 1010.7 hPa East 11.3 km/h 17.7 km/h 56% 0 mm 0.00 W/m2
22:04 25.3 °C 16.4 °C 1010.7 hPa SE 4.8 km/h 16.1 km/h 58% 0 mm 0.00 W/m2
22:09 24.9 °C 16.3 °C 1011.1 hPa SE 8 km/h 14.5 km/h 59% 0 mm 0.00 W/m2
22:14 24.7 °C 16.4 °C 1011.1 hPa ESE 8 km/h 11.3 km/h 60% 0 mm 0.00 W/m2
22:19 24.8 °C 16.5 °C 1011.1 hPa ESE 14.5 km/h 14.5 km/h 60% 0 mm 0.00 W/m2
22:24 24.9 °C 16.7 °C 1011.1 hPa ESE 6.4 km/h 14.5 km/h 60% 0 mm 0.00 W/m2
22:29 24.9 °C 16.6 °C 1011.1 hPa East 11.3 km/h 16.1 km/h 60% 0 mm 0.00 W/m2
22:34 24.7 °C 16.7 °C 1011.1 hPa East 14.5 km/h 16.1 km/h 61% 0 mm 0.00 W/m2
22:39 24.5 °C 17 °C 1011.1 hPa East 11.3 km/h 16.1 km/h 63% 0 mm 0.00 W/m2
22:44 24.2 °C 17.2 °C 1011.1 hPa East 12.9 km/h 16.1 km/h 65% 0 mm 0.00 W/m2
22:49 23.9 °C 17.4 °C 1011.1 hPa ESE 8 km/h 17.7 km/h 67% 0 mm 0.00 W/m2
22:54 23.8 °C 17.7 °C 1011.1 hPa ESE 11.3 km/h 17.7 km/h 69% 0 mm 0.00 W/m2
22:59 23.7 °C 18.2 °C 1011.1 hPa ESE 11.3 km/h 14.5 km/h 71% 0 mm 0.00 W/m2
23:04 23.7 °C 18.3 °C 1011.1 hPa ESE 11.3 km/h 14.5 km/h 72% 0 mm 0.00 W/m2
23:09 23.7 °C 18.6 °C 1011.1 hPa ESE 11.3 km/h 17.7 km/h 73% 0 mm 0.00 W/m2
23:14 23.8 °C 18.9 °C 1011.1 hPa ESE 11.3 km/h 20.9 km/h 74% 0 mm 0.00 W/m2
23:19 23.7 °C 18.8 °C 1011.1 hPa ESE 12.9 km/h 20.9 km/h 74% 0 mm 0.00 W/m2
23:24 23.4 °C 18.8 °C 1011.1 hPa ESE 14.5 km/h 17.7 km/h 75% 0 mm 0.00 W/m2
23:29 23.2 °C 18.9 °C 1011.1 hPa ESE 16.1 km/h 19.3 km/h 77% 0 mm 0.00 W/m2
23:34 23.1 °C 18.8 °C 1011.1 hPa East 16.1 km/h 19.3 km/h 77% 0 mm 0.00 W/m2
23:39 23.1 °C 18.8 °C 1011.1 hPa East 17.7 km/h 19.3 km/h 77% 0 mm 0.00 W/m2
23:44 22.9 °C 18.9 °C 1011.1 hPa ESE 12.9 km/h 20.9 km/h 78% 0 mm 0.00 W/m2
23:49 22.8 °C 19 °C 1011.1 hPa East 14.5 km/h 20.9 km/h 79% 0 mm 0.00 W/m2
23:54 22.7 °C 18.8 °C 1011.1 hPa ESE 14.5 km/h 17.7 km/h 79% 0 mm 0.00 W/m2
23:59 22.5 °C 18.9 °C 1011.1 hPa ESE 16.1 km/h 17.7 km/h 80% 0 mm 0.00 W/m2
Bismarck, North Dakota, USA
Compliments of Weather Underground - 4 mb